Time,TemperatureF,DewpointF,PressureIn,WindDirection,WindDirectionDegrees,WindSpeedMPH,WindSpeedGustMPH,Humidity,HourlyPrecipIn,Conditions,Clouds,dailyrainin,SoftwareType,DateUTC
2013-03-13 00:02:00,26.8,26.0,29.98,WNW,295,0.0,0.0,95,0.00,,,0.36,weatherlink.com 1.10,2013-03-13 04:02:00,
2013-03-13 00:17:00,26.8,26.0,29.98,WNW,286,0.0,0.0,95,0.00,,,0.36,weatherlink.com 1.10,2013-03-13 04:17:00,
2013-03-13 00:32:00,26.9,26.0,29.98,WSW,253,0.0,0.0,95,0.00,,,0.36,weatherlink.com 1.10,2013-03-13 04:32:00,
2013-03-13 00:47:00,27.2,26.0,29.98,NW,307,0.0,0.0,96,0.00,,,0.36,weatherlink.com 1.10,2013-03-13 04:47:00,
2013-03-13 01:02:00,27.4,26.0,29.99,NNE,32,0.0,0.0,96,0.00,,,0.00,weatherlink.com 1.10,2013-03-13 05:02:00,
2013-03-13 01:17:00,27.3,26.0,29.98,WSW,254,0.0,0.0,96,0.00,,,0.00,weatherlink.com 1.10,2013-03-13 05:17:00,
2013-03-13 01:32:00,27.1,26.0,29.98,NW,323,0.0,0.0,96,0.00,,,0.00,weatherlink.com 1.10,2013-03-13 05:32:00,
2013-03-13 01:47:00,26.8,26.0,29.98,NNE,12,0.0,0.0,96,0.00,,,0.00,weatherlink.com 1.10,2013-03-13 05:47:00,
2013-03-13 02:02:00,26.5,25.0,29.98,North,11,0.0,0.0,95,0.00,,,0.00,weatherlink.com 1.10,2013-03-13 06:02:00,
2013-03-13 02:17:00,26.2,25.0,29.98,NW,306,0.0,0.0,95,0.00,,,0.00,weatherlink.com 1.10,2013-03-13 06:17:00,
2013-03-13 02:32:00,26.0,25.0,29.98,NW,307,0.0,0.0,96,0.00,,,0.00,weatherlink.com 1.10,2013-03-13 06:32:00,
2013-03-13 02:47:00,25.3,24.0,29.98,West,266,0.0,0.0,95,0.00,,,0.00,weatherlink.com 1.10,2013-03-13 06:47:00,
2013-03-13 03:02:00,24.9,24.0,29.97,NNW,348,0.0,0.0,94,0.00,,,0.00,weatherlink.com 1.10,2013-03-13 07:02:00,
2013-03-13 03:17:00,24.4,23.0,29.98,SW,232,0.0,0.0,93,0.00,,,0.00,weatherlink.com 1.10,2013-03-13 07:17:00,
2013-03-13 03:32:00,24.0,22.0,29.98,NE,44,0.0,0.0,93,0.00,,,0.00,weatherlink.com 1.10,2013-03-13 07:32:00,
2013-03-13 03:47:00,23.8,22.0,29.98,WNW,286,0.0,0.0,93,0.00,,,0.00,weatherlink.com 1.10,2013-03-13 07:47:00,
2013-03-13 04:02:00,23.5,22.0,29.97,NNW,341,0.0,0.0,92,0.00,,,0.00,weatherlink.com 1.10,2013-03-13 08:02:00,
2013-03-13 04:17:00,23.2,21.0,29.96,West,270,0.0,0.0,92,0.00,,,0.00,weatherlink.com 1.10,2013-03-13 08:17:00,
2013-03-13 04:32:00,23.0,21.0,29.96,NW,306,0.0,0.0,92,0.00,,,0.00,weatherlink.com 1.10,2013-03-13 08:32:00,
2013-03-13 04:47:00,22.9,21.0,29.96,West,277,0.0,0.0,92,0.00,,,0.00,weatherlink.com 1.10,2013-03-13 08:47:00,
2013-03-13 05:02:00,22.7,21.0,29.96,West,281,0.0,0.0,92,0.00,,,0.00,weatherlink.com 1.10,2013-03-13 09:02:00,
2013-03-13 05:17:00,22.5,21.0,29.97,NW,306,0.0,0.0,92,0.00,,,0.00,weatherlink.com 1.10,2013-03-13 09:17:00,
2013-03-13 05:32:00,22.3,20.0,29.97,WSW,255,0.0,0.0,92,0.00,,,0.00,weatherlink.com 1.10,2013-03-13 09:32:00,
2013-03-13 05:47:00,22.2,21.0,29.97,NW,311,0.0,0.0,93,0.00,,,0.00,weatherlink.com 1.10,2013-03-13 09:47:00,
2013-03-13 06:02:00,22.0,20.0,29.97,NW,319,0.0,0.0,93,0.00,,,0.00,weatherlink.com 1.10,2013-03-13 10:02:00,
2013-03-13 06:17:00,21.9,20.0,29.98,WNW,300,0.0,0.0,93,0.00,,,0.00,weatherlink.com 1.10,2013-03-13 10:17:00,
2013-03-13 06:32:00,22.0,21.0,29.99,NNE,19,0.0,0.0,94,0.00,,,0.00,weatherlink.com 1.10,2013-03-13 10:32:00,
2013-03-13 06:47:00,22.1,21.0,29.99,WNW,291,0.0,0.0,94,0.00,,,0.00,weatherlink.com 1.10,2013-03-13 10:47:00,
2013-03-13 07:02:00,22.0,21.0,30.00,NNW,327,0.0,0.0,94,0.00,,,0.00,weatherlink.com 1.10,2013-03-13 11:02:00,
2013-03-13 07:17:00,22.0,21.0,29.99,ENE,65,0.0,0.0,94,0.00,,,0.00,weatherlink.com 1.10,2013-03-13 11:17:00,
2013-03-13 07:32:00,21.9,21.0,29.99,West,271,0.0,0.0,94,0.00,,,0.00,weatherlink.com 1.10,2013-03-13 11:32:00,
2013-03-13 07:47:00,22.0,21.0,30.00,WNW,286,0.0,0.0,94,0.00,,,0.00,weatherlink.com 1.10,2013-03-13 11:47:00,
2013-03-13 08:02:00,22.1,21.0,30.00,NW,317,0.0,0.0,94,0.00,,,0.00,weatherlink.com 1.10,2013-03-13 12:02:00,
2013-03-13 08:18:00,22.4,21.0,30.00,NW,313,0.0,0.0,95,0.00,,,0.00,weatherlink.com 1.10,2013-03-13 12:18:00,
2013-03-13 08:33:00,22.6,21.0,30.01,North,5,0.0,0.0,94,0.00,,,0.00,weatherlink.com 1.10,2013-03-13 12:33:00,
2013-03-13 08:48:00,22.6,21.0,30.01,North,349,0.0,0.0,94,0.00,,,0.00,weatherlink.com 1.10,2013-03-13 12:48:00,
2013-03-13 09:03:00,22.7,22.0,30.01,NE,34,0.0,0.0,95,0.00,,,0.00,weatherlink.com 1.10,2013-03-13 13:03:00,
2013-03-13 09:18:00,22.5,21.0,30.02,NNW,337,0.0,0.0,95,0.00,,,0.00,weatherlink.com 1.10,2013-03-13 13:18:00,
2013-03-13 09:33:00,22.3,21.0,30.02,North,355,0.0,0.0,95,0.00,,,0.00,weatherlink.com 1.10,2013-03-13 13:33:00,
2013-03-13 09:48:00,22.2,21.0,30.02,NW,308,0.0,0.0,95,0.00,,,0.00,weatherlink.com 1.10,2013-03-13 13:48:00,
2013-03-13 10:03:00,22.0,21.0,30.03,NW,317,0.0,0.0,95,0.00,,,0.00,weatherlink.com 1.10,2013-03-13 14:03:00,
2013-03-13 10:18:00,21.8,21.0,30.03,NW,310,0.0,0.0,95,0.00,,,0.00,weatherlink.com 1.10,2013-03-13 14:18:00,
2013-03-13 10:33:00,21.7,21.0,30.03,NW,311,0.0,0.0,95,0.00,,,0.00,weatherlink.com 1.10,2013-03-13 14:33:00,
2013-03-13 10:48:00,21.8,21.0,30.03,NNW,333,0.0,0.0,95,0.00,,,0.00,weatherlink.com 1.10,2013-03-13 14:48:00,
2013-03-13 11:03:00,22.0,21.0,30.04,ENE,72,0.0,0.0,95,0.00,,,0.00,weatherlink.com 1.10,2013-03-13 15:03:00,
2013-03-13 11:18:00,21.7,20.0,30.03,NW,311,0.0,0.0,94,0.00,,,0.00,weatherlink.com 1.10,2013-03-13 15:18:00,
2013-03-13 11:33:00,21.7,20.0,30.03,West,261,0.0,0.0,94,0.00,,,0.00,weatherlink.com 1.10,2013-03-13 15:33:00,
2013-03-13 11:48:00,23.1,21.0,30.03,WNW,296,0.0,0.0,92,0.00,,,0.00,weatherlink.com 1.10,2013-03-13 15:48:00,
2013-03-13 12:03:00,23.8,21.0,30.02,South,180,0.0,0.0,90,0.00,,,0.00,weatherlink.com 1.10,2013-03-13 16:03:00,
2013-03-13 12:18:00,24.1,21.0,30.02,WNW,301,0.0,0.0,89,0.00,,,0.00,weatherlink.com 1.10,2013-03-13 16:18:00,
2013-03-13 12:33:00,23.3,20.0,30.02,WNW,300,0.0,0.0,87,0.00,,,0.00,weatherlink.com 1.10,2013-03-13 16:33:00,
2013-03-13 12:48:00,23.2,20.0,30.02,ENE,61,0.0,0.0,87,0.00,,,0.00,weatherlink.com 1.10,2013-03-13 16:48:00,
2013-03-13 13:03:00,23.5,20.0,30.03,NNE,23,0.0,0.0,87,0.00,,,0.00,weatherlink.com 1.10,2013-03-13 17:03:00,
2013-03-13 13:18:00,22.9,20.0,30.03,WNW,293,0.0,0.0,87,0.00,,,0.00,weatherlink.com 1.10,2013-03-13 17:18:00,
2013-03-13 13:33:00,22.7,20.0,30.03,West,278,0.0,0.0,89,0.00,,,0.00,weatherlink.com 1.10,2013-03-13 17:33:00,
2013-03-13 13:48:00,22.7,20.0,30.03,NNW,341,0.0,0.0,90,0.00,,,0.00,weatherlink.com 1.10,2013-03-13 17:48:00,
2013-03-13 14:03:00,22.2,20.0,30.02,NNW,345,0.0,0.0,89,0.00,,,0.00,weatherlink.com 1.10,2013-03-13 18:03:00,
2013-03-13 14:18:00,22.7,20.0,30.02,NW,318,0.0,0.0,89,0.00,,,0.00,weatherlink.com 1.10,2013-03-13 18:18:00,
2013-03-13 14:33:00,22.3,19.0,30.02,NW,323,0.0,0.0,87,0.00,,,0.00,weatherlink.com 1.10,2013-03-13 18:33:00,
2013-03-13 14:48:00,22.6,19.0,30.02,NNE,24,0.0,0.0,85,0.00,,,0.00,weatherlink.com 1.10,2013-03-13 18:48:00,
2013-03-13 15:03:00,22.5,18.0,30.02,WNW,300,0.0,0.0,84,0.00,,,0.00,weatherlink.com 1.10,2013-03-13 19:03:00,
2013-03-13 15:18:00,22.4,18.0,30.04,North,355,0.0,0.0,83,0.00,,,0.00,weatherlink.com 1.10,2013-03-13 19:18:00,
2013-03-13 15:33:00,22.5,18.0,30.03,WNW,285,0.0,0.0,82,0.00,,,0.00,weatherlink.com 1.10,2013-03-13 19:33:00,
2013-03-13 15:48:00,22.4,18.0,30.03,NW,319,0.0,0.0,83,0.00,,,0.00,weatherlink.com 1.10,2013-03-13 19:48:00,
2013-03-13 16:03:00,22.3,18.0,30.03,WNW,297,0.0,0.0,84,0.00,,,0.00,weatherlink.com 1.10,2013-03-13 20:03:00,
2013-03-13 16:18:00,21.9,17.0,30.03,WSW,252,0.0,0.0,81,0.00,,,0.00,weatherlink.com 1.10,2013-03-13 20:18:00,
2013-03-13 16:33:00,21.7,17.0,30.03,North,360,0.0,0.0,81,0.00,,,0.00,weatherlink.com 1.10,2013-03-13 20:33:00,
2013-03-13 16:48:00,22.1,17.0,30.04,ENE,69,0.0,0.0,80,0.00,,,0.00,weatherlink.com 1.10,2013-03-13 20:48:00,
2013-03-13 17:03:00,21.5,17.0,30.03,NE,49,0.0,0.0,82,0.00,,,0.00,weatherlink.com 1.10,2013-03-13 21:03:00,
2013-03-13 17:18:00,20.8,17.0,30.04,NW,311,0.0,0.0,85,0.00,,,0.00,weatherlink.com 1.10,2013-03-13 21:18:00,
2013-03-13 17:33:00,20.7,17.0,30.05,WSW,257,0.0,0.0,85,0.00,,,0.00,weatherlink.com 1.10,2013-03-13 21:33:00,
2013-03-13 17:48:00,20.2,16.0,30.04,West,267,0.0,0.0,85,0.00,,,0.00,weatherlink.com 1.10,2013-03-13 21:48:00,
2013-03-13 18:03:00,20.0,16.0,30.04,NNW,344,0.0,0.0,84,0.00,,,0.00,weatherlink.com 1.10,2013-03-13 22:03:00,
2013-03-13 18:18:00,20.5,17.0,30.04,NW,314,0.0,0.0,85,0.00,,,0.00,weatherlink.com 1.10,2013-03-13 22:18:00,
2013-03-13 18:33:00,20.0,16.0,30.05,North,355,0.0,0.0,83,0.00,,,0.00,weatherlink.com 1.10,2013-03-13 22:33:00,
2013-03-13 18:48:00,19.6,15.0,30.05,NW,326,0.0,0.0,83,0.00,,,0.00,weatherlink.com 1.10,2013-03-13 22:48:00,
2013-03-13 19:03:00,19.0,15.0,30.05,NW,309,0.0,0.0,85,0.00,,,0.00,weatherlink.com 1.10,2013-03-13 23:03:00,
2013-03-13 19:18:00,18.6,15.0,30.05,WNW,292,0.0,0.0,84,0.00,,,0.00,weatherlink.com 1.10,2013-03-13 23:18:00,
2013-03-13 19:33:00,18.4,14.0,30.05,NW,324,0.0,0.0,84,0.00,,,0.00,weatherlink.com 1.10,2013-03-13 23:33:00,
2013-03-13 19:48:00,18.0,14.0,30.06,NNW,348,0.0,0.0,83,0.00,,,0.00,weatherlink.com 1.10,2013-03-13 23:48:00,
2013-03-13 20:03:00,17.8,13.0,30.07,NNW,338,0.0,0.0,82,0.00,,,0.00,weatherlink.com 1.10,2013-03-14 00:03:00,
2013-03-13 20:18:00,17.6,13.0,30.07,NW,311,0.0,0.0,83,0.00,,,0.00,weatherlink.com 1.10,2013-03-14 00:18:00,
2013-03-13 20:33:00,17.3,13.0,30.06,WSW,244,0.0,0.0,83,0.00,,,0.00,weatherlink.com 1.10,2013-03-14 00:33:00,
2013-03-13 20:48:00,17.0,13.0,30.07,NW,310,0.0,0.0,83,0.00,,,0.00,weatherlink.com 1.10,2013-03-14 00:48:00,
2013-03-13 21:03:00,16.6,13.0,30.07,NW,317,0.0,0.0,84,0.00,,,0.00,weatherlink.com 1.10,2013-03-14 01:03:00,
2013-03-13 21:18:00,16.3,12.0,30.08,NNW,330,0.0,0.0,84,0.00,,,0.00,weatherlink.com 1.10,2013-03-14 01:18:00,
2013-03-13 21:34:00,15.9,12.0,30.07,NNW,329,0.0,0.0,84,0.00,,,0.00,weatherlink.com 1.10,2013-03-14 01:34:00,
2013-03-13 21:49:00,15.4,12.0,30.07,NW,306,0.0,0.0,85,0.00,,,0.00,weatherlink.com 1.10,2013-03-14 01:49:00,
2013-03-13 22:04:00,15.2,12.0,30.09,West,262,0.0,0.0,86,0.00,,,0.00,weatherlink.com 1.10,2013-03-14 02:04:00,
2013-03-13 22:19:00,14.9,12.0,30.09,NNW,332,0.0,0.0,86,0.00,,,0.00,weatherlink.com 1.10,2013-03-14 02:19:00,
2013-03-13 22:34:00,14.8,12.0,30.11,WNW,286,0.0,0.0,87,0.00,,,0.00,weatherlink.com 1.10,2013-03-14 02:34:00,
2013-03-13 22:49:00,14.5,11.0,30.11,West,272,0.0,0.0,87,0.00,,,0.00,weatherlink.com 1.10,2013-03-14 02:49:00,
2013-03-13 23:04:00,14.3,11.0,30.11,NW,306,0.0,0.0,88,0.00,,,0.00,weatherlink.com 1.10,2013-03-14 03:04:00,
2013-03-13 23:19:00,14.2,12.0,30.10,NW,307,0.0,0.0,89,0.00,,,0.00,weatherlink.com 1.10,2013-03-14 03:19:00,
2013-03-13 23:34:00,13.9,11.0,30.10,NW,315,0.0,0.0,88,0.00,,,0.00,weatherlink.com 1.10,2013-03-14 03:34:00,
2013-03-13 23:49:00,13.6,11.0,30.11,NNW,329,0.0,0.0,87,0.00,,,0.00,weatherlink.com 1.10,2013-03-14 03:49:00,